{"data":{"norad_id":53572,"intl_designator":"2022-101AX","name":"STARLINK-4555","alt_names":[],"object_type":"PAYLOAD","status":"ACTIVE","operator":null,"country":"US","launch_date":"2022-08-19","launch_site_code":"AFETR","launch_vehicle":null,"mission":null,"orbit_class":"UNKNOWN","rcs_meters":null,"size_class":null,"mass_kg":null,"dimensions":null,"purposes":["comms"],"wikipedia_slug":null,"has_3d_model":false,"image_url":null,"decayed_at":null,"tle_current":{"epoch":"2026-05-25T02:09:27.808416Z","epoch_age_seconds":63281,"freshness":"FRESH","line1":"1 53572U 22101AX  26145.08990519  .00000368  00000+0  41199-4 0  9991","line2":"2 53572  53.2135  70.8177 0001564  81.7196 278.3974 15.08837923207983","mean_motion":15.08837923,"eccentricity":0.0001564,"inclination_deg":53.2135,"raan_deg":70.8177,"arg_perigee_deg":81.7196,"mean_anomaly_deg":278.3974,"bstar":4.1199e-5,"rev_number":20798,"period_min":95.437686052911,"perigee_km":538.66778004372,"apogee_km":540.83169501522,"semimajor_km":6917.8867375295,"source":"CELESTRAK","updated_at":"2026-05-25T13:38:17.471647Z"}}}